Погода Усть-Щугор

Погода Усть-Щугор : погода сейчас, прогноз погоды и архив. Всё, что Вы хотите узнать о погоде Усть-Щугор!

Поиск расширенной информации на нашем сайте:

Другие новости

Новости СМИ2

Главная страница сайта

Новости сайта

03.07.2017

Напоминаем, что на нашем специализированном сайте Метеоцентр.Азия вы можете получить высокодетализированные автоматические прогнозы погоды по пунктам России, СНГ и мира в авиационном формате (включающие направление и скорость ветра, видимость, явления погоды, количество и форму облачности, нижнюю и верхнюю границу облачности).


Погода Усть-Щугор - сегодня

Время (UTC), дата Ветер
(°,м/с) 
Видим.   Явления Облачность Т
(°С)
Тd
(°С)
f(%) Тe
(°С)
Pmin
(гПа)
dP
(гПа)
Po
(мм)
O2
(г/м3)
Тmin Tmax R s Состояние
почвы
03 20.11.17 220 (ЮЗ) 4000 м  слаб. снег  10/10 540 м 
[Sc]
-1.4 -2 96 -5  1013.4  0.7  753  305  -1.4    0.9  30  равномерный
сухой снег
100% 
06 20.11.17 220 (ЮЗ) 10 км  {снег}  10/10 270 м 
[Frnb]
-1.5 -2.2 95 -4  1014.1  0.6  754  306  -1.5         
09 20.11.17 210 (ЮЗ) 20000 м    10/10 270 м 
[Frnb]
-1.4 -2.2 94 -3  1015  0.9  754  306           
12 20.11.17 200 (Ю) 10 км    10/10 330 м 
[St]
-1.6 -2.5 94 -3  1015.1  0.1  754  306           
15 20.11.17 150 (ЮВ) 10 км    10/10 500 м 
[St]
-1.7 -2.6 94 -3  1014  -1.1  754  306    -1.4  0.1     
03 21.11.17 220 (ЮЗ) 4000 м  слаб. ливневой снег  10/10 360 м кучево-дожд. 
[Cb cap]
-0.2 -0.7 96 -3  1010.1  0.5  751  303  -2.2    33  равномерный
мокрый или
старый снег
100% 
06 21.11.17 250 (З) 20000 м  {ливн. осадки}  10/10 870 м кучево-дожд. 
[Cb cap]
-0.5 -1 96 1012.5  2.4  752  304           
09 21.11.17 310 (СЗ) 20000 м    10/10 630 м кучево-дожд. 
[Cb cap]
-1.2 -2.7 90 -3  1015.1  2.5  754  306           
12 21.11.17 330 (СЗ) 10 км    10/10 300 м 
[St]
-4 -5.1 92 -5  1017.2  1.9  756  310           
15 21.11.17 360 (С) 10 км    10/10 330 м 
[St]
-4.8 -5.8 93 -6  1017.9  0.7  756  311    +0  0.0     
03 22.11.17 090 (В) 4000 м  слаб. ливневой снег  10/8 600 м кучево-дожд., средняя 
[Cb cap|As op]
-4.8 -5.7 93 -7  1014.5  -0.7  754  310  -5.5    35  равномерный
сухой снег
100% 
06 22.11.17 120 (ЮВ) 4000 м  слаб. ливневой снег  10/8 300 м кучево-дожд., средняя 
[Cb cap|As op]
-4.9 -6 92 -9  1014.3  -0.2  754  310           
09 22.11.17 130 (ЮВ) 4000 м  слаб. ливневой снег  10/10 750 м кучево-дожд. 
[Cb cap]
-5 -6.3 91 -7  1015.2  754  310           
12 22.11.17 130 (ЮВ) 4000 м  слаб. снег{ливн. осадки}  10/0 средняя 
[As op]
-5.3 -6.6 91 -9  1015.6  0.3  755  311           
15 22.11.17 130 (ЮВ) 4000 м  слаб. снег  10/6 720 м средняя 
[Sc|As op]
-5.6 -7.4 87 -10  1015.1  -0.4  754  311    -4.8     
03 23.11.17 140 (ЮВ) 10 км    10/0 средняя 
[Ac As]
-7.8 -10.9 78 -11  1013.4  0.2  753  313  -8.2    0.0  35  равномерный
сухой снег
100% 
06 23.11.17 130 (ЮВ) 20000 м    10/3 1000 м средняя 
[Sc|Ac As]
-7.8 -10.8 79 -11  1013.7  0.2  753  313           
09 23.11.17 150 (ЮВ) 20000 м    10/0 средняя 
[Ac As]
-7 -9.3 84 -11  1013.1  -0.5  753  312           
12 23.11.17 140 (ЮВ) 4000 м  снег  10/0 средняя 
[Ac As]
-6.2 -7.7 89 -10  1011.9  -1.1  752  311           
15 23.11.17 150 (ЮВ) 4000 м  слаб. ливневой снег  10/6 600 м кучево-дожд., средняя 
[Cb cap|Ac As]
-6.1 -7.1 93 -9  1010.1  -1.1  751  310    -6     
03 24.11.17 270 (З) 4{10}  4000 м  слаб. ливневой снег  10/10 360 м кучево-дожд. 
[Cb cap]
-10.9 -13 84 -15  1012.8  0.9  752  317  -10.9    41  равномерный
сухой снег
100% 
06 24.11.17 260 (З) 10 км  слаб. ливневой снег  10/4 600 м кучево-дожд., средняя 
[Cb cap|As trans]
-13.1 -15.1 85 -17  1016.2  3.2  755  321  -13.3         
09 24.11.17 270 (З) 20000 м  снежные кристаллы{ливн. осадки}  10/4 600 м средняя 
[Sc|As trans]
-12.1 -14.1 85 -14  1018.6  2.4  757  320           
12 24.11.17 270 (З) 10 км  снежные кристаллы{ливн. осадки}  10/4 300 м средняя 
[Frnb|As trans]
-11.4 -13.1 87 -15  1020.7  2.2  758  320           
15 24.11.17 290 (З) 10 км  снежные кристаллы  10/0 средняя 
[As trans]
-10.5 -12.4 86 -15  1022.3  1.6  760  319    -9.8  0.2     
Время (UTC), дата Ветер
(°,м/с) 
Видим.   Явления Облачность Т
(°С)
Тd
(°С)
f(%) Тe
(°С)
Pmin
(гПа)
dP
(гПа)
Po
(мм)
O2
(г/м3)
Тmin Tmax R s Состояние
почвы

Для получения пояснительной информации подведите курсор к названию столбца.

ПОГОДА Усть-Щугор - архив

Всё, что Вы хотите узнать о погоде Усть-Щугор - удобно и подробно!

Выберите нужную дату (начиная с 1 января 2015* года) и нажмите кнопку "Найти".
Будут отображены архивные сводки погоды по пункту Усть-Щугор, начиная с указанной даты.


Отображать данные в формате CSV (для использования в таблицах Excel)


Внимание! Наш архив погоды предназначен исключительно для личного некоммерческого использования в познавательных целях. Если Вам необходимы официальные справки о состоянии погоды (для производственных, юридических, коммерческих и т.п. целей), обращайтесь в органы Росгидромета.

*Примечание: данная дата относится к архиву по метеостанциям СССР (Россия, СНГ, Балтия).
Архив по метеостанциям Зарубежной Европы и Азии (кроме Китая) хранится 10 дней, по другим регионам земного шара (Китай, Африка, Америка, Австралия, Океания) - 1 день.

Усть-Щугор - район местоположения метеостанции


Название, широта, долгота, высота метеостанции:
Усть-Щугор 64.3°ш. 57.6°д. 75 м над ур. моря [Российская Федерация]

Дополнительная информация

В oтличие oт бoльшинства пoгoдных сайтoв мы публикуем пoдрoбную метеoинфoрмацию в детальнoм прoфессиoнальнoм фoрмате.

Характеристики температуры и влажнoсти вoздуха измеряются на высoте 2 м в тени вдали oт зданий и деревьев.
Скoрoсть ветра измеряется на высoте 10 м (на урoвне рoста челoвека скoрoсть ветра ниже в 1.5-2 раза). Если метеoстанция нахoдится в гoрoде или в лесу, тo скoрoсть ветра занижена на 2-4 м/с пo сравнению с oткрытым местoм. Скoрoсть ветра над акватoриями крупных рек и oзёр, а также на вершинах хoлмoв на 2-5 м/с выше, чем в oбычных услoвиях.
Атмoсфернoе давление в разных тoчках местнoсти мoжет значительнo oтличаться oт давления на метеoстанции, в зависимoсти oт услoвий рельефа (при пoдъёме на 10 м давление пoнижается примернo на 1 мм рт.ст.).